User: anonymous   Login
Location: Krakow
(50.0830°N, 19.9170°E)
Time: 01:52:37
(UTC+02:00)
Language:

S-56A Canister/Altair - Orbit

View from above orbital plane
View from above orbital plane
View from above satellite
View from above satellite

Ground track
Ground track

The orbit data is extracted from the following two-line orbital elements,

1 00082U 61004B   24175.45042425  .00000445  00000-0  40626-3 0  9990
2 00082  38.8555 166.2530 1165507 324.4940  28.3318 12.26794035987884
Epoch (UTC): 23 June 2024 10:48:36
Eccentricity: 0.1165507
inclination: 38.8555°
perigee height: 637 km
apogee height: 2488 km
right ascension of ascending node: 166.2530°
argument of perigee: 324.4940°
revolutions per day: 12.26794035
mean anomaly at epoch: 28.3318°
orbit number at epoch: 98788

The dashed part of the orbit path shows where the satellite is in the earth's shadow,  

DLR